TimeCST,TemperatureF,Dew PointF,Humidity,Sea Level PressureIn,VisibilityMPH,Wind Direction,Wind SpeedMPH,Gust SpeedMPH,PrecipitationIn,Events,Conditions,WindDirDegrees,DateUTC
12:53 AM,39.0,36.0,89,29.87,5.0,ESE,6.9,-,N/A,,Overcast,120,2012-12-09 06:53:00
1:39 AM,39.2,35.6,87,29.85,5.0,ESE,5.8,-,N/A,,Overcast,120,2012-12-09 07:39:00
1:53 AM,39.0,36.0,89,29.86,4.0,ESE,5.8,-,N/A,,Overcast,120,2012-12-09 07:53:00
2:53 AM,39.0,36.0,89,29.86,1.0,Calm,Calm,-,N/A,,Overcast,0,2012-12-09 08:53:00
3:53 AM,39.0,37.0,93,29.84,1.0,NNE,4.6,-,N/A,,Overcast,20,2012-12-09 09:53:00
4:07 AM,39.2,37.4,93,29.83,1.0,NNE,4.6,-,N/A,,Overcast,20,2012-12-09 10:07:00
4:10 AM,39.2,37.4,93,29.83,0.2,NE,3.5,-,N/A,,Overcast,40,2012-12-09 10:10:00
4:19 AM,39.2,37.4,93,29.83,0.2,NNE,3.5,-,N/A,,Overcast,30,2012-12-09 10:19:00
4:28 AM,39.2,37.4,93,29.83,0.2,NNE,3.5,-,N/A,Fog,Fog,30,2012-12-09 10:28:00
4:53 AM,39.0,37.0,93,29.84,0.2,NNE,4.6,-,N/A,Fog,Fog,20,2012-12-09 10:53:00
5:53 AM,39.0,37.0,93,29.86,0.2,Calm,Calm,-,N/A,Fog,Fog,0,2012-12-09 11:53:00
6:53 AM,39.0,37.0,93,29.89,0.2,WNW,3.5,-,0.01,Rain,Light Rain,290,2012-12-09 12:53:00
7:53 AM,39.0,37.0,93,29.87,0.2,North,5.8,-,0.01,,Overcast,350,2012-12-09 13:53:00
8:53 AM,39.0,37.9,96,29.90,0.2,NW,5.8,-,N/A,,Overcast,310,2012-12-09 14:53:00
9:53 AM,39.9,37.9,93,29.91,0.2,WNW,5.8,-,N/A,,Overcast,300,2012-12-09 15:53:00
10:45 AM,41.0,37.4,87,29.91,1.5,NW,12.7,21.9,N/A,,Overcast,310,2012-12-09 16:45:00
10:53 AM,41.0,37.0,86,29.91,1.5,NW,10.4,-,N/A,,Overcast,320,2012-12-09 16:53:00
11:53 AM,41.0,34.0,76,29.89,7.0,NNW,16.1,23.0,N/A,,Overcast,340,2012-12-09 17:53:00
12:53 PM,39.9,30.0,68,29.93,10.0,NW,17.3,24.2,N/A,,Mostly Cloudy,320,2012-12-09 18:53:00
1:53 PM,41.0,27.0,57,29.93,10.0,WNW,15.0,23.0,N/A,,Mostly Cloudy,300,2012-12-09 19:53:00
2:53 PM,37.0,21.9,54,29.94,10.0,NW,12.7,24.2,N/A,,Scattered Clouds,310,2012-12-09 20:53:00
3:53 PM,34.0,18.0,52,29.98,10.0,NW,15.0,21.9,N/A,,Mostly Cloudy,310,2012-12-09 21:53:00
4:53 PM,28.9,12.9,51,30.01,10.0,NW,15.0,-,N/A,,Mostly Cloudy,310,2012-12-09 22:53:00
5:53 PM,27.0,12.9,56,30.03,10.0,NW,8.1,-,N/A,,Scattered Clouds,310,2012-12-09 23:53:00
6:53 PM,26.1,12.0,55,30.06,10.0,NW,17.3,24.2,N/A,,Mostly Cloudy,320,2012-12-10 00:53:00
7:39 PM,24.8,12.2,59,30.04,10.0,NW,16.1,-,N/A,,Overcast,310,2012-12-10 01:39:00
7:53 PM,25.0,10.9,55,30.07,10.0,NW,15.0,24.2,N/A,,Overcast,320,2012-12-10 01:53:00
8:53 PM,23.0,9.0,55,30.08,10.0,NW,15.0,26.5,N/A,,Overcast,320,2012-12-10 02:53:00
9:53 PM,21.0,9.0,60,30.08,10.0,NW,17.3,24.2,N/A,,Overcast,320,2012-12-10 03:53:00
10:53 PM,19.9,9.0,62,30.09,10.0,NW,17.3,27.6,N/A,,Mostly Cloudy,310,2012-12-10 04:53:00
11:53 PM,19.9,9.0,62,30.09,10.0,NW,18.4,26.5,N/A,,Overcast,310,2012-12-10 05:53:00